Wind_Speed
16 14 13 11 11 11 11 11 12 14 16 16 17 17 17 19 18 18 19 18 19 19 17 17 17 17 17 18 18 18 17 17 17 18 20 19 18 19 19 17 21 18 17
17 16 14 12 11 10 11 12 12 14 15 15 15 17 16 17 18 18 20 18 18 17 17 17 17 17 17 17 18 17 16 16 14 17 21 22 19 19 19 20 21 18 18
18 15 13 12 11 10 10 11 11 12 13 14 14 15 16 18 18 17 16 18 18 17 17 17 17 16 16 16 16 15 17 15 11 5 9 18 17 19 19 20 18 17 17
19 17 13 12 10 10 10 10 11 12 12 12 14 15 16 16 16 17 17 17 17 16 17 17 16 16 16 15 15 14 16 14 16 21 14 16 16 17 17 17 16 15 16
17 15 13 11 9 9 10 10 11 11 12 12 14 15 15 15 16 16 17 16 16 15 14 14 15 15 14 14 14 15 17 15 13 18 17 16 14 14 16 16 15 15 14
15 17 13 11 11 10 10 11 11 12 13 13 14 14 15 15 16 16 16 15 16 16 15 13 12 11 13 13 13 14 16 11 11 17 18 15 14 14 13 14 13 13 12
20 15 14 12 12 11 10 11 11 12 12 13 13 14 14 15 15 15 15 15 15 16 16 15 15 14 12 13 12 15 15 15 15 16 16 14 13 13 12 13 12 12 12
19 16 14 13 13 12 11 11 13 12 12 13 14 14 16 15 15 15 14 14 15 15 15 14 13 13 13 13 13 12 11 9 12 16 14 12 12 10 11 12 11 10 9
21 16 15 13 13 13 13 12 13 14 14 15 15 16 15 15 14 13 13 13 13 12 13 13 13 13 12 12 14 16 16 16 10 14 15 11 10 9 9 9 9 9 8
20 18 14 14 13 14 13 13 13 14 15 15 15 15 16 15 14 13 13 12 11 11 11 12 12 11 13 14 14 11 12 11 8 11 10 8 8 8 8 8 8 8 8
14 13 14 14 15 14 12 12 13 14 14 16 14 14 16 15 13 12 11 11 10 10 10 11 11 6 10 16 13 10 9 7 8 11 8 8 7 7 7 7 7 7 8
18 12 10 14 13 12 15 13 11 11 13 13 10 6 7 14 14 13 10 10 9 9 10 9 8 5 3 8 8 8 9 8 8 8 6 6 6 5 5 6 6 7 7
17 17 19 11 14 12 13 12 13 12 12 12 10 11 13 13 13 12 9 9 6 3 3 3 2 3 7 6 8 9 9 8 8 7 6 5 5 5 5 5 6 6 7
12 11 14 12 8 10 9 10 11 15 14 13 13 11 10 9 9 5 8 9 5 7 4 6 9 6 8 4 10 10 7 9 8 8 6 5 5 5 5 5 5 7 8
14 13 14 12 10 8 8 11 10 14 11 14 12 8 10 9 8 9 2 7 3 6 7 5 7 6 7 6 7 6 8 8 8 10 7 7 7 7 6 7 7 8 8
15 14 14 15 14 9 12 9 12 14 13 14 12 8 6 8 4 7 6 6 2 8 7 8 4 5 8 10 6 6 7 8 7 8 9 9 9 8 8 8 8 8 9
14 15 14 14 13 13 13 13 10 14 13 12 12 8 4 5 1 3 4 1 7 5 6 5 5 4 8 9 8 4 8 6 7 6 6 8 8 10 8 8 7 8 9
17 16 15 15 16 15 14 11 11 11 12 12 11 8 6 5 4 3 5 5 5 2 4 1 3 5 4 7 4 6 6 8 6 5 6 5 5 7 8 7 7 8 9
17 17 14 16 16 15 13 9 11 10 13 10 9 10 6 6 3 1 3 5 4 1 1 3 4 5 3 3 11 7 5 7 7 7 6 5 5 2 6 6 6 8 10
18 17 14 16 15 15 10 11 12 9 9 9 7 10 7 6 4 2 4 2 6 1 4 9 8 5 5 4 7 7 6 6 5 6 6 7 5 5 5 2 4 2 8
19 17 16 16 16 14 13 12 10 10 9 9 12 8 6 6 5 3 6 4 3 6 8 1 4 3 2 1 6 7 6 7 6 6 5 5 4 3 3 2 4 4 5
20 19 18 17 16 13 13 6 6 15 10 11 10 8 6 6 4 4 1 3 2 4 2 2 6 6 5 2 7 2 5 6 6 8 4 4 1 3 4 2 2 3 5
21 20 20 16 16 14 9 7 6 4 6 7 8 9 8 6 5 1 3 3 2 0 4 1 3 6 4 4 5 9 3 1 8 7 6 4 4 4 1 2 2 2 4
23 20 20 18 16 14 9 11 8 10 11 12 12 8 7 7 6 5 5 3 4 5 3 2 2 7 8 5 3 6 6 5 4 4 7 5 6 7 2 6 2 4 3
25 21 20 19 17 15 14 9 10 14 9 12 8 8 4 8 7 7 6 5 4 4 3 2 1 7 7 9 4 3 3 2 3 11 0 10 5 4 2 1 4 5 2
26 21 21 19 18 15 12 11 9 10 7 0 8 7 12 9 9 6 7 5 5 6 2 4 3 3 7 8 8 6 6 10 13 8 3 3 4 3 1 2 3 4 7
Wind_Direction
138 130 126 119 112 113 108 98 93 88 85 86 89 87 87 94 92 89 98 101 100 99 95 93 91 88 86 83 84 82 82 85 89 94 88 83 74 73 78 85 84 85 86
128 130 127 121 119 114 104 96 92 90 91 89 90 93 93 93 94 93 98 99 98 93 94 95 96 92 86 82 82 83 83 93 96 94 85 77 73 70 75 85 84 86 86
128 129 124 123 115 111 106 95 93 90 86 89 92 97 95 96 98 98 99 96 95 96 93 92 87 83 84 84 78 82 89 77 79 94 89 78 75 74 75 78 79 87 87
128 133 122 119 115 105 109 99 96 93 95 96 94 96 97 100 102 101 97 97 98 96 92 91 91 87 86 82 82 81 86 80 69 55 90 77 76 73 75 78 80 81 82
114 115 121 121 120 115 100 112 100 101 99 94 91 92 95 101 102 102 97 93 91 89 92 94 89 87 84 82 83 83 88 78 53 76 75 78 79 80 76 81 76 84 92
120 111 120 118 115 118 110 99 94 90 92 90 95 100 107 108 107 105 97 90 87 85 86 95 89 85 89 82 84 86 88 68 102 84 86 74 79 78 79 73 75 77 76
138 119 117 116 117 112 112 98 99 89 90 98 100 101 107 110 109 105 98 91 87 91 86 84 86 86 85 87 85 89 86 65 86 94 81 79 81 81 74 77 69 72 68
133 115 116 112 109 112 112 103 101 97 100 105 110 103 103 107 111 108 102 94 96 94 85 83 88 88 85 86 83 91 96 91 90 94 85 81 84 76 73 77 74 70 60
101 114 126 115 111 111 111 110 107 100 104 108 109 103 101 108 110 112 107 98 98 89 82 78 85 84 81 80 83 94 97 90 72 94 92 78 78 75 71 69 66 61 55
109 123 119 129 124 118 105 108 104 102 103 108 112 118 112 111 117 122 109 105 100 93 85 81 82 90 86 77 93 100 101 92 93 82 80 83 79 75 69 66 61 56 50
116 117 131 132 122 116 113 110 105 110 110 111 112 129 130 119 114 110 123 109 108 102 92 84 79 101 114 92 78 97 74 66 80 86 86 95 84 73 65 60 56 50 45
133 141 123 129 134 139 120 139 125 142 127 117 124 157 150 92 107 119 120 113 102 89 83 74 87 84 211 179 101 86 86 86 84 86 100 99 95 81 63 52 51 45 37
142 161 122 139 155 135 121 145 143 135 124 118 127 105 111 124 126 121 130 126 130 111 177 103 300 257 39 41 83 76 94 95 96 91 98 100 106 99 79 64 53 45 37
136 139 121 141 124 116 141 157 146 130 133 131 121 122 131 122 110 78 105 120 153 105 108 38 87 74 78 35 67 74 73 88 93 95 90 100 101 96 93 80 63 47 35
147 139 133 136 122 128 149 141 124 128 147 125 141 140 133 102 118 105 106 68 71 113 111 93 88 95 123 112 95 91 90 88 95 102 92 91 94 96 94 84 69 56 39
141 138 139 133 136 155 124 130 143 128 142 145 132 121 107 123 124 133 166 131 80 51 62 64 15 98 119 112 95 88 95 100 96 104 109 85 83 87 88 82 72 58 39
148 140 152 142 140 135 141 153 160 147 144 139 122 132 117 116 129 122 103 82 98 94 162 139 146 143 124 118 120 117 112 113 110 115 120 128 99 79 78 72 61 45 33
143 147 161 146 142 148 144 163 152 149 135 145 146 149 138 120 149 126 186 112 122 193 129 74 148 96 87 93 77 99 110 118 122 125 116 116 138 137 81 62 54 42 30
145 154 166 141 149 141 158 160 141 147 159 153 150 148 141 142 158 314 59 111 235 195 74 143 73 338 150 144 144 133 131 125 180 113 123 137 131 86 132 64 42 41 31
153 160 159 157 148 147 166 166 147 164 175 151 134 123 149 155 171 209 112 145 234 277 120 48 3 13 16 321 8 88 105 129 139 145 138 149 131 161 114 62 324 75 32
160 164 161 159 160 162 162 170 170 149 151 163 121 128 147 151 156 190 175 166 275 122 59 297 235 186 97 295 278 136 127 161 161 148 155 155 130 145 98 88 40 16 357
162 166 169 160 173 193 183 151 181 172 170 164 151 157 177 161 177 188 196 194 98 124 136 342 324 320 96 352 325 268 161 186 149 132 137 166 125 133 131 125 35 26 360
164 169 174 170 178 207 192 179 174 150 137 166 153 182 182 194 181 200 218 16 167 347 162 189 317 324 70 106 346 340 341 205 160 163 180 131 177 170 122 201 113 47 336
164 176 173 183 183 205 192 192 177 198 198 178 192 174 160 191 196 186 206 212 225 320 107 200 305 336 327 125 142 47 30 2 330 162 155 130 193 212 103 300 23 145 6
163 177 178 185 190 199 206 207 194 217 237 199 182 143 176 176 200 200 205 209 227 253 182 349 358 322 332 333 77 164 342 195 357 332 223 143 169 196 162 275 6 334 30
170 170 178 184 193 200 194 199 217 276 285 59 151 166 188 180 187 200 192 207 222 271 197 222 224 281 347 359 3 312 336 34 306 353 352 224 1 170 288 190 117 330 324
Height
819 824 827 828 829 831 831 831 830 830 829 829 830 830 830 831 832 833 834 835 835 836 835 835 836 837 837 836 836 837 837 837 837 837 837 837 839 838 837 837 837 839 839
817 824 827 829 831 833 833 832 833 832 831 832 833 833 834 834 834 836 836 837 838 838 839 839 840 840 840 840 840 840 840 839 840 839 840 840 842 841 840 839 840 842 842
818 824 828 830 831 833 833 833 834 834 834 833 836 836 837 837 838 839 839 840 841 842 842 842 842 843 843 843 843 843 843 842 841 844 843 844 845 844 844 843 844 845 845
817 823 828 830 832 834 834 835 836 836 836 838 838 838 839 840 841 842 843 844 845 845 845 845 846 846 846 846 846 845 845 844 842 843 844 846 847 847 847 847 847 847 847
820 824 829 830 833 835 836 837 838 838 839 839 838 839 841 843 844 845 846 846 847 847 847 848 848 848 848 848 849 848 847 845 845 846 848 849 850 850 849 850 850 849 849
823 826 830 832 834 836 837 838 839 839 839 840 841 843 844 846 846 848 849 849 849 850 851 851 851 851 851 851 851 851 849 847 849 850 851 852 852 852 852 852 852 851 851
823 829 833 834 836 837 839 840 840 841 842 843 844 846 848 848 849 850 851 852 853 853 853 853 853 853 853 853 853 852 851 850 850 852 854 855 855 854 854 854 854 854 852
821 828 834 835 837 839 840 841 842 844 845 847 847 849 850 851 851 852 854 854 855 855 855 855 855 855 855 855 854 854 853 851 853 853 856 857 856 856 856 855 855 854 854
823 830 834 837 839 841 842 843 845 846 847 847 849 850 851 852 854 855 856 856 857 858 858 857 857 857 857 856 856 856 855 855 855 856 856 858 858 858 857 856 856 855 855
827 834 836 838 841 842 845 845 846 848 848 849 851 852 853 854 855 857 857 858 859 859 859 859 858 858 858 858 857 856 856 855 857 857 860 860 859 859 858 857 857 856 855
831 833 836 838 842 844 846 847 848 849 850 852 853 853 852 854 857 859 859 859 860 860 860 860 859 858 858 857 857 856 856 856 857 858 861 860 860 859 859 859 858 857 856
831 835 836 837 842 844 846 848 850 852 852 854 856 854 854 856 858 860 861 861 861 860 860 859 858 857 856 856 857 857 859 859 859 860 861 860 860 860 860 859 859 858 857
830 832 836 842 843 844 846 847 848 851 854 857 858 857 858 859 859 860 860 861 861 860 860 858 858 857 857 856 857 858 859 860 860 861 861 861 860 860 861 860 860 859 858
830 834 836 841 844 845 848 847 848 852 855 856 859 859 859 859 860 859 859 861 860 861 862 856 860 861 862 859 858 859 860 860 861 862 862 862 861 861 861 861 861 860 859
830 834 839 844 847 848 848 849 850 852 855 858 859 859 860 861 863 863 863 860 860 861 861 860 861 861 861 860 861 861 862 863 862 863 865 863 862 863 863 862 862 861 860
831 836 842 847 850 850 850 852 854 855 856 858 860 861 861 863 863 864 862 863 863 861 862 863 862 860 859 862 863 863 863 864 865 864 865 865 864 864 864 863 863 862 861
833 839 844 847 849 852 854 854 855 855 857 859 861 865 865 864 865 865 865 864 864 866 865 864 863 861 859 861 863 863 864 864 866 866 864 866 866 866 865 865 864 863 862
834 841 843 844 849 852 854 854 854 856 858 860 862 864 866 867 867 866 865 864 866 864 863 862 861 860 860 860 862 861 864 864 866 866 866 866 866 865 866 865 865 864 863
837 841 843 845 849 852 856 854 856 857 859 859 862 864 866 867 868 866 866 867 867 865 862 861 862 861 861 859 859 861 863 864 864 865 866 866 867 865 866 866 865 865 864
838 842 844 847 851 853 855 856 857 859 859 860 862 864 867 867 868 868 868 868 866 865 865 864 866 864 862 862 856 860 861 863 864 864 865 864 867 866 865 867 864 864 864
837 842 845 847 852 853 856 855 857 858 860 862 862 865 867 868 869 868 869 869 866 866 868 869 867 866 864 864 860 860 863 862 862 863 862 862 865 864 866 866 865 865 863
835 841 845 848 853 853 854 855 856 857 859 860 863 866 867 867 870 869 869 869 869 869 871 870 868 865 864 865 860 857 857 859 858 859 862 862 863 864 865 865 866 866 864
833 839 844 848 852 853 854 856 857 857 859 860 863 865 867 868 870 870 871 869 870 870 871 871 869 868 864 867 866 864 857 857 857 860 863 862 864 863 864 864 864 865 864
828 837 842 848 851 853 853 856 858 859 857 859 860 862 865 867 869 870 871 872 872 871 871 872 871 869 867 864 865 865 865 862 858 857 858 861 863 861 864 862 861 861 862
823 832 839 845 850 851 854 858 857 857 857 855 859 861 864 866 868 868 871 872 873 872 873 873 873 872 868 866 863 864 865 862 861 856 854 856 859 859 860 860 861 860 859
817 827 835 843 848 851 854 856 857 856 856 855 856 859 860 863 865 868 870 872 873 873 874 875 875 874 873 870 868 867 863 863 862 859 855 857 857 856 857 854 854 858 858